Погода в Шимшурге

Россия / Республика Марий Эл     56˚11′25″N   47˚54′05″E
темп.,
°C
ветер,
м/с
пор.,
м/с
влажн.,
%
обл.,
%
осадки,
мм/ч
давл.,
гПа
погр.,
м
17 января, вс
вс1700:00−14˚з379698 0.3 998226
03:00−15˚з379697 0.4 999270
06:00−15˚зсз3795100 0.1 1001323
09:00−17˚зсз389698 0.2 1004266
12:00−16˚зсз359396 0.0 1008402
15:00−18˚сз249698 0.1 1011119
18:00−22˚сз229778 0.0 101420
21:00−25˚сз119842 0.0 101620
18 января, пн
пн1800:00−26˚з11980 0.0 101819
03:00−27˚зсз11990 0.0 101819
06:00−28˚зюз119941 0.0 101819
09:00−27˚зюз119754 0.0 102019
12:00−22˚зюз129252 0.0 1019224
15:00−22˚ююз119669 0.0 101920
18:00−26˚юз119771 0.0 101920
21:00−26˚ссз119783 0.0 101919
19 января, вт
вт1900:00−25˚ссв1197100 0.0 101919
03:00−25˚всв1197100 0.0 101820
06:00−23˚св1296100 0.0 101727
09:00−22˚св1295100 0.0 101895
12:00−19˚св2392100 0.0 1016241
15:00−18˚ссв2394100 0.0 1015254
18:00−19˚ссв2496100 0.0 1015145
21:00−20˚с2394100 0.0 1015129
20 января, ср
ср2000:00−19˚с2598100 0.1 1015200
03:00−20˚ссз2596100 0.3 1015201
06:00−22˚ссз2493100 0.0 1016130
09:00−24˚ссз2490100 0.0 1017114
12:00−21˚ссз248832 0.0 1017233
15:00−21˚ссз249316 0.0 1018101
18:00−25˚сз22930 0.0 102020
21:00−27˚зсз22910 0.0 102119
21 января, чт
чт2100:00−27˚з22900 0.0 102019
03:00−25˚зюз249933 0.0 102072
06:00−21˚зюз3798100 0.1 1019232
09:00−17˚з3896100 0.3 1019284
12:00−14˚з4794100 0.3 1019330
15:00−13˚з4994100 0.4 1018362
18:00−15˚зюз3995100 0.0 1018287
21:00−14˚юз3795100 0.2 1017261